Preview of NWS' New Version of Forecast
This preview is not operational and should not be used for support decisions.

Regional Weather Roundup (RWR)

Issued by National Weather Service (NWS)

                            
000
ASPQ40 PGUM 260210
RWRPQ 
WEATHER ROUNDUP FOR THE MARIANAS AND MICRONESIA
NATIONAL WEATHER SERVICE TIYAN GU
1200 PM CHST FRI APR 26 2019

GUZ001>004-260300-
MARIANA ISLANDS-
  
CITY           SKY/WX    TMP DP  RH WIND       PRES   REMARKS
GUAM AIRPORT   MOSUNNY   88  72  58 E18       29.89F HX  94           
ANDERSEN AFB   MOSUNNY   84  75  74 E16       29.90F HX  92           
ROTA AIRPORT   LGT RAIN  82  72  69 E15       29.89F                  
TINIAN AP      PTSUNNY   91  77  62 E17       29.89F HX 105           
SAIPAN AP      PTSUNNY   84  75  74 E15       29.90F HX  92           

$$

PMZ161-260300-
REPUBLIC OF PALAU-
  
CITY           SKY/WX    TMP DP  RH WIND       PRES   REMARKS
KOROR AP       CLOUDY    81  77  89 E13       29.82S                  
KOROR WSO      NOT AVBL                                               

$$

PMZ171>174-260300-
FEDERATED STATES OF MICRONESIA-
  
CITY           SKY/WX    TMP DP  RH WIND       PRES   REMARKS
YAP AIRPORT    PTSUNNY   90  79  70 E12       29.82S HX 105           
CHUUK AP       CLOUDY    86  79  79 NE10      29.78S HX  99           
POHNPEI AP     NOT AVBL                                               
POHNPEI WSO    PTSUNNY   86  75  70 NE7       29.79F HX  95           
KOSRAE AP      LGT RAIN  84  77  79 NE15      29.72  HX  94           

$$

PMZ181-260300-
REPUBLIC OF THE MARSHALL ISLANDS-
  
CITY           SKY/WX    TMP DP  RH WIND       PRES   REMARKS
KWAJALEIN AP   MOSUNNY   88  75  66 E18G24    29.77F HX  97           
MAJURO AP      NOT AVBL                                               
MAJURO WSO     NOT AVBL                                               

$$